sat.trackr.live / text

‹ back to catalog

STARLINK-11425 [DTC]

NORAD 61943 · 2024-209E

PAYLOAD ACTIVE UNKNOWN

§ Identity

Operator
Country
US
Launch date
2024-11-14
Launch site
AFWTR
Launch vehicle
Mass (kg)
RCS (m²)

Purposes: comms

External: N2YO · Heavens-Above · Gunter

§ Orbital elements

Epoch: 2026-05-24T20:03:28.583136Z

Period
91.73 min
Inclination
53.1573°
Eccentricity
0.0000886
Mean motion
15.69741859 rev/d
Perigee alt
359.0 km
Apogee alt
360.2 km
Semi-major
6,737.8 km
B*
1.0582e-3
RAAN
356.1727°
Arg perigee
78.4730°
Mean anomaly
281.6387°
Rev number
8,863

§ Raw data

STARLINK-11425 [DTC]1 61943U 24209E   26144.83574749  .00129808  00000+0  10582-2 0  99992 61943  53.1573 356.1727 0000886  78.4730 281.6387 15.69741859 88636

JSON: /api/v1/satellites/61943 · /tle

For live sub-satellite position, see the globe view (requires WebGL).

§ Visibility from observer

Set your observer location to see the next 7 days of passes ≥ 10°. The values pass through the URL so the page stays shareable.

No JS? Fill the form by hand. The geolocation button needs JavaScript.